Hourly Weather Bolshoe Yakovlevo

Today, 27 July, Tuesday

Time Temperature Precipitation Wind Pressure Humidity
00:00 +18°C° 0 mm 1 mps 754 mmHg 71%
01:00 +16°C° 0 mm 1 mps 755 mmHg 71%
02:00 +16°C° 0 mm 1 mps 755 mmHg 71%
03:00 +16°C° 0 mm 1 mps 755 mmHg 71%
04:00 +18°C° 0 mm 1 mps 755 mmHg 70%
05:00 +18°C° 0 mm 1 mps 755 mmHg 69%
06:00 +20°C° 0 mm 1 mps 755 mmHg 61%
07:00 +23°C° 0 mm 1 mps 755 mmHg 54%
08:00 +25°C° 0 mm 1 mps 754 mmHg 46%
09:00 +27°C° 0 mm 1 mps 754 mmHg 42%
10:00 +28°C° 0 mm 1 mps 754 mmHg 37%
11:00 +29°C° 0 mm 1 mps 754 mmHg 33%
12:00 +30°C° 0 mm 1 mps 753 mmHg 32%
13:00 +30°C° 0 mm 1 mps 753 mmHg 30%
14:00 +30°C° 0 mm 2 mps 753 mmHg 29%
15:00 +30°C° 0 mm 1 mps 752 mmHg 32%
16:00 +30°C° 0 mm 1 mps 752 mmHg 34%
17:00 +30°C° 0 mm 1 mps 752 mmHg 36%
18:00 +27°C° 0 mm 1 mps 752 mmHg 42%
19:00 +25°C° 0 mm 1 mps 751 mmHg 47%
20:00 +23°C° 0 mm 1 mps 751 mmHg 52%
21:00 +22°C° 0 mm 1 mps 751 mmHg 56%
22:00 +21°C° 0 mm 1 mps 751 mmHg 60%
23:00 +20°C° 0 mm 1 mps 752 mmHg 64%

Tomorrow, 28 July, Wednesday

Time Temperature Precipitation Wind Pressure Humidity
00:00 +20°C° 0 mm 1 mps 751 mmHg 66%
01:00 +19°C° 0 mm 1 mps 751 mmHg 68%
02:00 +19°C° 0 mm 1 mps 751 mmHg 71%
03:00 +19°C° 0 mm 1 mps 751 mmHg 73%
04:00 +19°C° 0 mm 1 mps 751 mmHg 74%
05:00 +20°C° 0 mm 1 mps 750 mmHg 76%
06:00 +22°C° 0 mm 1 mps 750 mmHg 69%
07:00 +24°C° 0 mm 1 mps 750 mmHg 62%
08:00 +26°C° 0 mm 2 mps 750 mmHg 54%
09:00 +28°C° 0 mm 2 mps 749 mmHg 49%
10:00 +29°C° 0 mm 2 mps 749 mmHg 44%
11:00 +31°C° 0 mm 3 mps 748 mmHg 39%
12:00 +30°C° 0 mm 3 mps 748 mmHg 40%
13:00 +30°C° 0 mm 3 mps 747 mmHg 41%
14:00 +30°C° 0 mm 2 mps 747 mmHg 42%
15:00 +28°C° 0 mm 3 mps 747 mmHg 47%
16:00 +27°C° 0 mm 4 mps 746 mmHg 52%
17:00 +26°C° 0 mm 4 mps 746 mmHg 57%
18:00 +25°C° 0.1 mm 4 mps 746 mmHg 64%
19:00 +22°C° 0.1 mm 3 mps 746 mmHg 71%
20:00 +21°C° 0.1 mm 3 mps 746 mmHg 78%
21:00 +20°C° 0 mm 2 mps 745 mmHg 82%
22:00 +19°C° 0 mm 2 mps 745 mmHg 86%
23:00 +18°C° 0 mm 2 mps 745 mmHg 91%

Day after tomorrow, 29 July, Thursday

Time Temperature Precipitation Wind Pressure Humidity
00:00 +17°C° 0 mm 2 mps 744 mmHg 92%
01:00 +17°C° 0 mm 2 mps 744 mmHg 93%
02:00 +17°C° 0 mm 2 mps 743 mmHg 95%
03:00 +17°C° 0 mm 2 mps 743 mmHg 94%
04:00 +18°C° 0 mm 2 mps 743 mmHg 93%
05:00 +18°C° 0 mm 2 mps 743 mmHg 92%
06:00 +19°C° 0 mm 2 mps 743 mmHg 88%
07:00 +20°C° 0 mm 3 mps 743 mmHg 83%
08:00 +21°C° 0 mm 3 mps 742 mmHg 79%
09:00 +23°C° 0 mm 4 mps 742 mmHg 69%
10:00 +26°C° 0 mm 4 mps 742 mmHg 58%
11:00 +28°C° 0 mm 4 mps 742 mmHg 48%
12:00 +28°C° 0 mm 4 mps 742 mmHg 46%
13:00 +29°C° 0 mm 4 mps 742 mmHg 43%
14:00 +29°C° 0 mm 5 mps 742 mmHg 40%
15:00 +29°C° 0 mm 4 mps 742 mmHg 43%
16:00 +28°C° 0 mm 4 mps 742 mmHg 46%
17:00 +28°C° 0 mm 3 mps 742 mmHg 49%
18:00 +26°C° 0 mm 3 mps 742 mmHg 55%
19:00 +24°C° 0 mm 3 mps 742 mmHg 61%
20:00 +21°C° 0 mm 2 mps 742 mmHg 67%
21:00 +20°C° 0 mm 2 mps 742 mmHg 72%
22:00 +20°C° 0 mm 2 mps 742 mmHg 77%
23:00 +19°C° 0 mm 2 mps 742 mmHg 82%

30 July, Friday

Time Temperature Precipitation Wind Pressure Humidity
00:00 +18°C° 0 mm 2 mps 743 mmHg 84%
01:00 +18°C° 0 mm 2 mps 743 mmHg 87%
02:00 +17°C° 0 mm 2 mps 743 mmHg 89%
03:00 +17°C° 0 mm 2 mps 743 mmHg 88%
04:00 +18°C° 0 mm 2 mps 743 mmHg 87%
05:00 +19°C° 0 mm 1 mps 743 mmHg 86%
06:00 +20°C° 0 mm 2 mps 743 mmHg 78%
07:00 +21°C° 0 mm 2 mps 743 mmHg 71%
08:00 +24°C° 0 mm 3 mps 743 mmHg 63%
09:00 +25°C° 0.1 mm 3 mps 743 mmHg 59%
10:00 +26°C° 0.1 mm 4 mps 743 mmHg 55%
11:00 +28°C° 0.1 mm 4 mps 743 mmHg 50%
12:00 +27°C° 0 mm 4 mps 743 mmHg 47%
13:00 +27°C° 0 mm 4 mps 743 mmHg 44%
14:00 +27°C° 0 mm 4 mps 743 mmHg 41%
15:00 +27°C° 0 mm 3 mps 742 mmHg 43%
16:00 +26°C° 0 mm 3 mps 742 mmHg 45%
17:00 +26°C° 0 mm 3 mps 742 mmHg 46%
18:00 +24°C° 0 mm 2 mps 742 mmHg 51%
19:00 +23°C° 0 mm 2 mps 742 mmHg 56%
20:00 +22°C° 0 mm 1 mps 742 mmHg 61%
21:00 +20°C° 0 mm 2 mps 742 mmHg 63%
22:00 +20°C° 0 mm 2 mps 742 mmHg 65%
23:00 +19°C° 0 mm 2 mps 742 mmHg 66%

31 July, Saturday

Time Temperature Precipitation Wind Pressure Humidity
00:00 +19°C° 0 mm 2 mps 742 mmHg 66%
01:00 +19°C° 0 mm 3 mps 742 mmHg 66%
02:00 +19°C° 0 mm 3 mps 742 mmHg 66%
03:00 +19°C° 0 mm 3 mps 742 mmHg 66%
04:00 +19°C° 0 mm 3 mps 742 mmHg 66%
05:00 +19°C° 0 mm 3 mps 742 mmHg 66%
06:00 +20°C° 0 mm 4 mps 742 mmHg 59%
07:00 +21°C° 0 mm 4 mps 742 mmHg 52%
08:00 +22°C° 0 mm 5 mps 742 mmHg 45%
09:00 +25°C° 0 mm 5 mps 742 mmHg 40%
10:00 +26°C° 0 mm 5 mps 742 mmHg 36%
11:00 +28°C° 0 mm 6 mps 742 mmHg 32%
12:00 +28°C° 0 mm 6 mps 742 mmHg 31%
13:00 +29°C° 0 mm 6 mps 741 mmHg 30%
14:00 +29°C° 0 mm 6 mps 741 mmHg 29%
15:00 +29°C° 0 mm 5 mps 742 mmHg 31%
16:00 +28°C° 0 mm 5 mps 742 mmHg 33%
17:00 +28°C° 0 mm 4 mps 742 mmHg 35%
18:00 +26°C° 0 mm 3 mps 742 mmHg 42%
19:00 +23°C° 0 mm 2 mps 742 mmHg 49%
20:00 +21°C° 0 mm 1 mps 742 mmHg 56%
21:00 +19°C° 0 mm 2 mps 742 mmHg 58%
22:00 +18°C° 0 mm 2 mps 743 mmHg 60%
23:00 +18°C° 0 mm 2 mps 743 mmHg 63%

1 August, Sunday

Time Temperature Precipitation Wind Pressure Humidity
00:00 +17°C° 0 mm 2 mps 743 mmHg 63%
01:00 +17°C° 0 mm 2 mps 743 mmHg 64%
02:00 +17°C° 0 mm 2 mps 743 mmHg 65%
03:00 +17°C° 0 mm 2 mps 743 mmHg 65%
04:00 +17°C° 0 mm 2 mps 743 mmHg 66%
05:00 +18°C° 0 mm 2 mps 743 mmHg 66%
06:00 +18°C° 0.9 mm 2 mps 743 mmHg 75%
07:00 +18°C° 0.9 mm 2 mps 743 mmHg 84%
08:00 +18°C° 0.9 mm 3 mps 743 mmHg 92%
09:00 +19°C° 1.5 mm 2 mps 743 mmHg 91%
10:00 +19°C° 1.5 mm 2 mps 743 mmHg 90%
11:00 +19°C° 1.5 mm 2 mps 742 mmHg 88%
12:00 +20°C° 0.3 mm 2 mps 742 mmHg 84%
13:00 +21°C° 0.3 mm 2 mps 742 mmHg 80%
14:00 +23°C° 0.3 mm 2 mps 742 mmHg 76%
15:00 +23°C° 0 mm 2 mps 742 mmHg 74%
16:00 +23°C° 0 mm 2 mps 742 mmHg 73%
17:00 +24°C° 0 mm 2 mps 742 mmHg 71%
18:00 +21°C° 0.4 mm 2 mps 742 mmHg 79%
19:00 +20°C° 0.4 mm 2 mps 742 mmHg 87%
20:00 +19°C° 0.4 mm 2 mps 742 mmHg 94%
21:00 +18°C° 0 mm 2 mps 743 mmHg 94%
22:00 +18°C° 0 mm 2 mps 743 mmHg 94%
23:00 +17°C° 0 mm 2 mps 743 mmHg 94%
Show more

We Need Your Consent

Meteoprog and our Service Providers may store and access personal data such as cookies, device identifiers or other similar technologies on your device and process such data to personalise content and ads, as well as provide social media features and to analyse the traffic.

  • Store and/or access information on your device

    Cookies, device identifiers or other information can be stored or accessed on your device for the purposes indicated above.

  • Personalised ads and content, ad and content measurement, audience insights, and products development

    Ads and content can be personalised based on a profile. More data can be added to better personalise ads and content. Ad and content performance can be measured. Insights about the audience who saw the ads and content can be derived. Such data can be used to develop or improve user’s experience, systems and software.

By clicking ‘I Agree’ you will allow the use of indicated cookies, device identifiers, web beacons or other similar technologies. Your settings can be changed in the browser on your device.

For certain purposes, legitimate interests may be relied on, rather than consent. You can read more about this in our Privacy and Cookie Policy.